Location: Go�ngahuizen
(53.0821°N, 5.8849°E)
Time: 07:23:07
(UTC+00:00)

SPOT 1/Viking Rocket - Pass Details

Date: 09 April 2020
Orbit: 776 x 795 km, 98.5° (Epoch: 02 June)

Event Time Altitude Azimuth Distance (km) Brightness Sun altitude
Exits shadow 19:50:09 17° 121° (ESE) 1,909 4.9 -12.3°
Maximum altitude 19:53:37 38° 63° (ENE) 1,212 4.3 -12.8°
Drops below altitude 10° 19:58:25 10° 357° (N) 2,379 6.6 -13.4°
Sets 20:00:53 0° 349° (N) 3,313 7.5 -13.7°
